カタログに戻る

STARLINK-30999

運用中通信VLEO
NORAD 58551·PAYLOAD·🇺🇸 United States

打ち上げ Dec 8, 2023 から Vandenberg Space Force Base

Loading…

次のパス (今後24時間)

TLE

最新Source: CelesTrak SupGP

元期: Sep 15, 2026, 02:38 UTC

1 58551C 23192W   26258.11020833 -.00026692  00000+0 -78850-3 0  2587
2 58551  53.1563 250.5499 0001255  97.2319  90.6463 15.34408989    17

AllMySatでSTARLINK-30999をリアルタイム追跡

Download on the App Store